Simultaneous Nadir Overpasses (SNOs) Predictions

Prediction of SNOs between LANDSAT-8 and NOAA-19 Satellite Orbit:

Table of predicted SNOs for the next 14.0 days since TLE Epoch: 11/20/2021
Index Date (LANDSAT-8) Time (LANDSAT-8) Lat,Lon (LANDSAT-8) SZA (LANDSAT-8 ) Date (NOAA-19) Time (NOAA-19) Lat,Lon (NOAA-19) SZA (NOAA-19 ) Distance(km) Time Diff (sec)
1 11/20/2021 14:01:27 -80.59,-177.19 77.85 11/20/2021 14:01:16 -80.61,-177.28 77.85 2.67 11
2 11/22/2021 19:35:11 80.60, -80.56 102.63 11/22/2021 19:34:18 80.61, -80.56 102.62 1.95 53
3 11/22/2021 20:24:38 -80.60, 87.07 77.37 11/22/2021 20:25:20 -80.59, 87.17 77.34 1.82 42
4 11/25/2021 01:58:22 80.60,-176.35 103.07 11/25/2021 01:58:22 80.61,-176.30 103.09 1.31 0
5 11/27/2021 07:32:07 -80.60, -79.79 76.53 11/27/2021 07:31:31 -80.61, -79.63 76.52 3.20 36
6 11/27/2021 08:21:32 80.60, 87.85 103.48 11/27/2021 08:22:25 80.60, 87.95 103.51 1.79 53
7 11/29/2021 13:55:17 -80.60,-175.59 76.16 11/29/2021 13:55:35 -80.61,-175.62 76.14 1.93 18
8 12/01/2021 19:29:00 80.62, -78.80 104.21 12/01/2021 19:28:35 80.62, -78.87 104.20 1.15 25
9 12/01/2021 20:18:28 -80.59, 88.58 75.83 12/01/2021 20:19:39 -80.60, 88.72 75.78 2.70 71
10 12/04/2021 01:02:45 -80.62, 17.75 75.50 12/04/2021 01:01:45 -80.62, 17.75 75.52 0.84 60



Historial Predications of SNOs between LANDSAT-8 and NOAA-19
